Time,TemperatureF,DewpointF,PressureIn,WindDirection,WindDirectionDegrees,WindSpeedMPH,WindSpeedGustMPH,Humidity,HourlyPrecipIn,Conditions,Clouds,dailyrainin,SoftwareType,DateUTC
2013-04-08 00:03:00,43.0,38.0,-100.00,East,85,1.0,4.0,83,0.00,,,-99.99,,2013-04-08 04:03:00,
2013-04-08 00:12:00,43.0,38.0,-100.00,East,85,1.0,4.0,83,0.00,,,-99.99,,2013-04-08 04:12:00,
2013-04-08 00:23:00,42.0,39.0,-100.00,East,80,1.0,4.0,87,0.00,,,-99.99,,2013-04-08 04:23:00,
2013-04-08 00:33:00,42.0,39.0,-100.00,ENE,75,1.0,2.0,88,0.00,,,-99.99,,2013-04-08 04:33:00,
2013-04-08 00:44:00,42.0,39.0,-100.00,East,80,1.0,2.0,88,0.00,,,-99.99,,2013-04-08 04:44:00,
2013-04-08 00:53:00,42.0,39.0,-100.00,NE,45,2.0,3.0,89,0.00,,,-99.99,,2013-04-08 04:53:00,
2013-04-08 01:02:00,41.0,38.0,-100.00,ENE,75,2.0,4.0,89,0.00,,,-99.99,,2013-04-08 05:02:00,
2013-04-08 01:12:00,41.0,39.0,-100.00,ENE,75,2.0,4.0,90,0.00,,,-99.99,,2013-04-08 05:12:00,
2013-04-08 01:22:00,41.0,39.0,-100.00,ENE,75,2.0,4.0,90,0.00,,,-99.99,,2013-04-08 05:22:00,
2013-04-08 01:32:00,41.0,38.0,-100.00,East,90,2.0,4.0,90,0.00,,,-99.99,,2013-04-08 05:32:00,
2013-04-08 01:42:00,41.0,38.0,-100.00,ESE,105,2.0,4.0,89,0.00,,,-99.99,,2013-04-08 05:42:00,
2013-04-08 01:52:00,41.0,38.0,-100.00,NE,45,2.0,5.0,88,0.00,,,-99.99,,2013-04-08 05:52:00,
2013-04-08 02:02:00,41.0,38.0,-100.00,East,90,2.0,4.0,87,0.00,,,-99.99,,2013-04-08 06:02:00,
2013-04-08 02:12:00,41.0,38.0,-100.00,NE,45,2.0,6.0,87,0.00,,,-99.99,,2013-04-08 06:12:00,
2013-04-08 02:22:00,42.0,38.0,-100.00,NE,50,4.0,6.0,86,0.00,,,-99.99,,2013-04-08 06:22:00,
2013-04-08 02:32:00,41.0,38.0,-100.00,NE,35,3.0,6.0,86,0.00,,,-99.99,,2013-04-08 06:32:00,
2013-04-08 02:43:00,41.0,37.0,-100.00,East,85,2.0,4.0,87,0.00,,,-99.99,,2013-04-08 06:43:00,
2013-04-08 02:52:00,41.0,37.0,-100.00,NE,45,2.0,6.0,87,0.00,,,-99.99,,2013-04-08 06:52:00,
2013-04-08 03:02:00,41.0,37.0,-100.00,ENE,60,2.0,7.0,87,0.00,,,-99.99,,2013-04-08 07:02:00,
2013-04-08 03:12:00,40.0,37.0,-100.00,NE,45,3.0,5.0,88,0.00,,,-99.99,,2013-04-08 07:12:00,
2013-04-08 03:22:00,40.0,37.0,-100.00,East,85,2.0,4.0,88,0.00,,,-99.99,,2013-04-08 07:22:00,
2013-04-08 03:33:00,40.0,37.0,-100.00,East,85,2.0,4.0,88,0.00,,,-99.99,,2013-04-08 07:33:00,
2013-04-08 03:42:00,40.0,37.0,-100.00,ESE,110,2.0,4.0,89,0.00,,,-99.99,,2013-04-08 07:42:00,
2013-04-08 03:52:00,40.0,37.0,-100.00,East,90,2.0,6.0,90,0.00,,,-99.99,,2013-04-08 07:52:00,
2013-04-08 04:02:00,40.0,37.0,-100.00,East,80,3.0,6.0,91,0.00,,,-99.99,,2013-04-08 08:02:00,
2013-04-08 04:12:00,40.0,37.0,-100.00,East,80,3.0,6.0,91,0.00,,,-99.99,,2013-04-08 08:12:00,
2013-04-08 04:22:00,39.0,37.0,-100.00,ENE,75,2.0,6.0,92,0.00,,,-99.99,,2013-04-08 08:22:00,
2013-04-08 04:33:00,39.0,37.0,-100.00,East,80,2.0,5.0,93,0.00,,,-99.99,,2013-04-08 08:33:00,
2013-04-08 04:42:00,39.0,37.0,-100.00,NE,50,2.0,4.0,94,0.00,,,-99.99,,2013-04-08 08:42:00,
2013-04-08 04:52:00,38.0,37.0,-100.00,ENE,60,2.0,4.0,94,0.00,,,-99.99,,2013-04-08 08:52:00,
2013-04-08 05:02:00,38.0,37.0,-100.00,East,80,3.0,4.0,95,0.00,,,-99.99,,2013-04-08 09:02:00,
2013-04-08 05:12:00,38.0,37.0,-100.00,NE,45,2.0,6.0,96,0.00,,,-99.99,,2013-04-08 09:12:00,
2013-04-08 05:22:00,38.0,37.0,-100.00,ENE,75,2.0,5.0,96,0.00,,,-99.99,,2013-04-08 09:22:00,
2013-04-08 05:33:00,38.0,37.0,-100.00,ENE,60,2.0,7.0,96,0.00,,,-99.99,,2013-04-08 09:33:00,
2013-04-08 05:43:00,38.0,37.0,-100.00,NE,40,3.0,7.0,96,0.00,,,-99.99,,2013-04-08 09:43:00,
2013-04-08 05:53:00,38.0,37.0,-100.00,East,90,2.0,5.0,96,0.00,,,-99.99,,2013-04-08 09:53:00,
2013-04-08 06:03:00,38.0,37.0,-100.00,ENE,75,2.0,6.0,96,0.00,,,-99.99,,2013-04-08 10:03:00,
2013-04-08 06:13:00,38.0,37.0,-100.00,ENE,70,3.0,6.0,96,0.00,,,-99.99,,2013-04-08 10:13:00,
2013-04-08 06:23:00,38.0,38.0,-100.00,ENE,65,3.0,7.0,96,0.00,,,-99.99,,2013-04-08 10:23:00,
2013-04-08 06:33:00,39.0,38.0,-100.00,NE,50,3.0,7.0,96,0.00,,,-99.99,,2013-04-08 10:33:00,
2013-04-08 06:42:00,39.0,38.0,-100.00,NE,50,3.0,7.0,96,0.00,,,-99.99,,2013-04-08 10:42:00,
2013-04-08 06:52:00,39.0,38.0,-100.00,ENE,65,3.0,6.0,96,0.00,,,-99.99,,2013-04-08 10:52:00,
2013-04-08 07:03:00,39.0,38.0,-100.00,ENE,65,4.0,7.0,96,0.00,,,-99.99,,2013-04-08 11:03:00,
2013-04-08 07:12:00,39.0,38.0,-100.00,NE,45,4.0,7.0,96,0.00,,,-99.99,,2013-04-08 11:12:00,
2013-04-08 07:23:00,39.0,38.0,-100.00,ENE,60,3.0,6.0,96,0.00,,,-99.99,,2013-04-08 11:23:00,
2013-04-08 07:32:00,39.0,38.0,-100.00,NE,45,3.0,9.0,96,0.00,,,-99.99,,2013-04-08 11:32:00,
2013-04-08 07:42:00,39.0,38.0,-100.00,East,80,2.0,6.0,96,0.00,,,-99.99,,2013-04-08 11:42:00,
2013-04-08 07:52:00,39.0,38.0,-100.00,ENE,70,1.0,6.0,96,0.00,,,-99.99,,2013-04-08 11:52:00,
2013-04-08 08:03:00,40.0,39.0,-100.00,East,90,4.0,9.0,96,0.00,,,-99.99,,2013-04-08 12:03:00,
2013-04-08 08:12:00,40.0,39.0,-100.00,East,90,5.0,7.0,95,0.00,,,-99.99,,2013-04-08 12:12:00,
2013-04-08 08:23:00,41.0,40.0,-100.00,ENE,65,5.0,8.0,94,0.00,,,-99.99,,2013-04-08 12:23:00,
2013-04-08 08:33:00,42.0,40.0,-100.00,East,90,6.0,9.0,93,0.00,,,-99.99,,2013-04-08 12:33:00,
2013-04-08 08:42:00,42.0,40.0,-100.00,East,85,6.0,12.0,92,0.00,,,-99.99,,2013-04-08 12:42:00,
2013-04-08 08:52:00,42.0,40.0,-100.00,East,80,6.0,12.0,91,0.00,,,-99.99,,2013-04-08 12:52:00,
2013-04-08 09:03:00,43.0,40.0,-100.00,East,90,5.0,12.0,91,0.00,,,-99.99,,2013-04-08 13:03:00,
2013-04-08 09:12:00,43.0,40.0,-100.00,East,90,5.0,12.0,91,0.00,,,-99.99,,2013-04-08 13:12:00,
2013-04-08 09:22:00,44.0,41.0,-100.00,East,95,6.0,9.0,90,0.00,,,-99.99,,2013-04-08 13:22:00,
2013-04-08 09:32:00,43.0,41.0,-100.00,East,90,6.0,9.0,91,3.39,,,-99.99,,2013-04-08 13:32:00,
2013-04-08 09:42:00,43.0,42.0,-100.00,East,90,4.0,9.0,95,0.00,,,-99.99,,2013-04-08 13:42:00,
2013-04-08 09:53:00,43.0,42.0,-100.00,East,85,4.0,7.0,96,0.00,,,-99.99,,2013-04-08 13:53:00,
2013-04-08 10:03:00,43.0,43.0,-100.00,East,85,6.0,9.0,97,1.69,,,-99.99,,2013-04-08 14:03:00,
2013-04-08 10:12:00,44.0,43.0,-100.00,East,100,4.0,8.0,98,0.00,,,-99.99,,2013-04-08 14:12:00,
2013-04-08 10:22:00,44.0,44.0,-100.00,East,95,6.0,9.0,99,0.00,,,-99.99,,2013-04-08 14:22:00,
2013-04-08 10:33:00,45.0,45.0,-100.00,ENE,75,4.0,7.0,99,0.00,,,-99.99,,2013-04-08 14:33:00,
2013-04-08 10:42:00,45.0,45.0,-100.00,East,85,6.0,10.0,98,0.00,,,-99.99,,2013-04-08 14:42:00,
2013-04-08 10:52:00,45.0,45.0,-100.00,East,85,6.0,7.0,98,0.00,,,-99.99,,2013-04-08 14:52:00,
2013-04-08 11:02:00,45.0,45.0,-100.00,East,90,4.0,7.0,98,0.00,,,-99.99,,2013-04-08 15:02:00,
2013-04-08 11:12:00,46.0,45.0,-100.00,ENE,70,6.0,9.0,98,0.00,,,-99.99,,2013-04-08 15:12:00,
2013-04-08 11:22:00,46.0,46.0,-100.00,East,90,4.0,8.0,98,0.00,,,-99.99,,2013-04-08 15:22:00,
2013-04-08 11:34:00,46.0,46.0,-100.00,East,90,6.0,9.0,98,0.00,,,-99.99,,2013-04-08 15:34:00,
2013-04-08 11:43:00,47.0,47.0,-100.00,ENE,70,6.0,9.0,98,0.00,,,-99.99,,2013-04-08 15:43:00,
2013-04-08 11:53:00,48.0,47.0,-100.00,East,85,6.0,9.0,97,0.00,,,-99.99,,2013-04-08 15:53:00,
2013-04-08 12:03:00,49.0,47.0,-100.00,East,85,7.0,10.0,95,0.00,,,-99.99,,2013-04-08 16:03:00,
2013-04-08 12:13:00,49.0,48.0,-100.00,ENE,60,5.0,10.0,94,0.00,,,-99.99,,2013-04-08 16:13:00,
2013-04-08 12:23:00,50.0,49.0,-100.00,East,100,4.0,9.0,94,0.00,,,-99.99,,2013-04-08 16:23:00,
2013-04-08 12:32:00,50.0,49.0,-100.00,East,80,2.0,7.0,94,2.24,,,-99.99,,2013-04-08 16:32:00,
2013-04-08 12:42:00,50.0,49.0,-100.00,East,80,2.0,7.0,94,2.24,,,-99.99,,2013-04-08 16:42:00,
2013-04-08 12:53:00,50.0,49.0,-100.00,NW,325,3.0,6.0,98,19.25,,,-99.99,,2013-04-08 16:53:00,
2013-04-08 13:03:00,50.0,50.0,-100.00,NE,45,2.0,4.0,99,9.06,,,-99.99,,2013-04-08 17:03:00,
2013-04-08 13:12:00,50.0,50.0,-100.00,NE,45,1.0,2.0,99,1.10,,,-99.99,,2013-04-08 17:12:00,
2013-04-08 13:22:00,51.0,51.0,-100.00,North,5,1.0,4.0,99,0.55,,,-99.99,,2013-04-08 17:22:00,
2013-04-08 13:32:00,51.0,51.0,-100.00,NE,40,2.0,3.0,99,5.67,,,-99.99,,2013-04-08 17:32:00,
2013-04-08 13:43:00,51.0,51.0,-100.00,NE,40,2.0,3.0,99,5.67,,,-99.99,,2013-04-08 17:43:00,
2013-04-08 13:52:00,51.0,51.0,-100.00,NE,40,2.0,3.0,99,5.67,,,-99.99,,2013-04-08 17:52:00,
2013-04-08 14:02:00,54.0,54.0,-100.00,East,95,4.0,7.0,99,0.00,,,-99.99,,2013-04-08 18:02:00,
2013-04-08 14:12:00,56.0,56.0,-100.00,ESE,110,3.0,6.0,99,0.00,,,-99.99,,2013-04-08 18:12:00,
2013-04-08 14:23:00,58.0,58.0,-100.00,ESE,120,4.0,6.0,99,0.00,,,-99.99,,2013-04-08 18:23:00,
2013-04-08 14:32:00,60.0,60.0,-100.00,SSE,155,4.0,9.0,98,0.00,,,-99.99,,2013-04-08 18:32:00,
2013-04-08 14:42:00,62.0,60.0,-100.00,SSE,155,6.0,10.0,95,0.00,,,-99.99,,2013-04-08 18:42:00,
2013-04-08 14:52:00,63.0,60.0,-100.00,SE,135,5.0,11.0,91,0.00,,,-99.99,,2013-04-08 18:52:00,
2013-04-08 15:03:00,64.0,60.0,-100.00,South,170,9.0,14.0,85,0.00,,,-99.99,,2013-04-08 19:03:00,
2013-04-08 15:12:00,67.0,59.0,-100.00,SSW,195,13.0,19.0,76,0.00,,,-99.99,,2013-04-08 19:12:00,
2013-04-08 15:23:00,68.0,58.0,-100.00,SW,215,15.0,28.0,70,0.00,,,-99.99,,2013-04-08 19:23:00,
2013-04-08 15:33:00,69.0,57.0,-100.00,South,185,18.0,28.0,67,0.00,,,-99.99,,2013-04-08 19:33:00,
2013-04-08 15:42:00,70.0,58.0,-100.00,SSW,200,18.0,29.0,66,0.00,,,-99.99,,2013-04-08 19:42:00,
2013-04-08 15:52:00,69.0,57.0,-100.00,SSW,210,21.0,34.0,65,0.00,,,-99.99,,2013-04-08 19:52:00,
2013-04-08 16:02:00,69.0,58.0,-100.00,SSW,210,21.0,33.0,65,0.00,,,-99.99,,2013-04-08 20:02:00,
2013-04-08 16:12:00,69.0,57.0,-100.00,SW,215,22.0,31.0,64,0.00,,,-99.99,,2013-04-08 20:12:00,
2013-04-08 16:23:00,70.0,57.0,-100.00,SW,215,23.0,37.0,63,0.00,,,-99.99,,2013-04-08 20:23:00,
2013-04-08 16:33:00,70.0,57.0,-100.00,SW,215,23.0,37.0,63,0.00,,,-99.99,,2013-04-08 20:33:00,
2013-04-08 16:43:00,70.0,57.0,-100.00,SW,215,23.0,37.0,63,0.00,,,-99.99,,2013-04-08 20:43:00,
2013-04-08 16:52:00,70.0,57.0,-100.00,SW,220,19.0,29.0,62,0.00,,,-99.99,,2013-04-08 20:52:00,
2013-04-08 17:02:00,71.0,55.0,-100.00,WSW,240,21.0,31.0,57,0.00,,,-99.99,,2013-04-08 21:02:00,
2013-04-08 17:12:00,71.0,55.0,-100.00,SW,235,23.0,32.0,58,0.00,,,-99.99,,2013-04-08 21:12:00,
2013-04-08 17:22:00,71.0,55.0,-100.00,SW,235,23.0,32.0,58,0.00,,,-99.99,,2013-04-08 21:22:00,
2013-04-08 17:33:00,72.0,56.0,-100.00,SW,220,17.0,30.0,57,0.00,,,-99.99,,2013-04-08 21:33:00,
2013-04-08 17:43:00,72.0,56.0,-100.00,SW,225,17.0,27.0,56,0.00,,,-99.99,,2013-04-08 21:43:00,
2013-04-08 17:52:00,71.0,55.0,-100.00,SW,235,17.0,32.0,56,0.00,,,-99.99,,2013-04-08 21:52:00,
2013-04-08 18:03:00,71.0,55.0,-100.00,WSW,245,16.0,25.0,57,0.00,,,-99.99,,2013-04-08 22:03:00,
2013-04-08 18:13:00,72.0,55.0,-100.00,WSW,240,14.0,24.0,55,0.00,,,-99.99,,2013-04-08 22:13:00,
2013-04-08 18:23:00,72.0,54.0,-100.00,WSW,245,14.0,24.0,53,0.00,,,-99.99,,2013-04-08 22:23:00,
2013-04-08 18:32:00,71.0,53.0,-100.00,WSW,255,20.0,29.0,53,0.00,,,-99.99,,2013-04-08 22:32:00,
2013-04-08 18:43:00,71.0,54.0,-100.00,WSW,245,17.0,23.0,53,0.00,,,-99.99,,2013-04-08 22:43:00,
2013-04-08 18:52:00,71.0,54.0,-100.00,WSW,245,17.0,24.0,54,0.00,,,-99.99,,2013-04-08 22:52:00,
2013-04-08 19:02:00,71.0,54.0,-100.00,WSW,245,12.0,24.0,55,0.00,,,-99.99,,2013-04-08 23:02:00,
2013-04-08 19:12:00,71.0,54.0,-100.00,West,260,16.0,22.0,55,0.00,,,-99.99,,2013-04-08 23:12:00,
2013-04-08 19:22:00,71.0,54.0,-100.00,West,260,16.0,22.0,55,0.00,,,-99.99,,2013-04-08 23:22:00,
2013-04-08 19:32:00,69.0,53.0,-100.00,West,270,16.0,21.0,56,0.00,,,-99.99,,2013-04-08 23:32:00,
2013-04-08 19:43:00,67.0,53.0,-100.00,WNW,295,20.0,23.0,59,0.00,,,-99.99,,2013-04-08 23:43:00,
2013-04-08 19:52:00,66.0,53.0,-100.00,WNW,290,16.0,23.0,61,0.00,,,-99.99,,2013-04-08 23:52:00,
2013-04-08 20:02:00,65.0,52.0,-100.00,West,280,16.0,20.0,64,0.00,,,-99.99,,2013-04-09 00:02:00,
2013-04-08 20:12:00,63.0,52.0,-100.00,West,280,17.0,21.0,66,0.00,,,-99.99,,2013-04-09 00:12:00,
2013-04-08 20:22:00,62.0,52.0,-100.00,West,275,11.0,23.0,68,0.00,,,-99.99,,2013-04-09 00:22:00,
2013-04-08 20:32:00,61.0,51.0,-100.00,West,280,13.0,20.0,69,0.00,,,-99.99,,2013-04-09 00:32:00,
2013-04-08 20:42:00,60.0,51.0,-100.00,West,280,12.0,25.0,70,0.00,,,-99.99,,2013-04-09 00:42:00,
2013-04-08 20:52:00,60.0,51.0,-100.00,WNW,285,11.0,16.0,70,0.00,,,-99.99,,2013-04-09 00:52:00,
2013-04-08 21:03:00,60.0,49.0,-100.00,West,265,12.0,22.0,67,0.00,,,-99.99,,2013-04-09 01:03:00,
2013-04-08 21:12:00,59.0,48.0,-100.00,West,275,9.0,14.0,67,0.00,,,-99.99,,2013-04-09 01:12:00,
2013-04-08 21:22:00,58.0,48.0,-100.00,WNW,300,7.0,12.0,69,0.00,,,-99.99,,2013-04-09 01:22:00,
2013-04-08 21:34:00,58.0,48.0,-100.00,WNW,295,10.0,19.0,68,0.00,,,-99.99,,2013-04-09 01:34:00,
2013-04-08 21:42:00,57.0,47.0,-100.00,NW,305,10.0,17.0,70,0.00,,,-99.99,,2013-04-09 01:42:00,
2013-04-08 21:52:00,57.0,47.0,-100.00,NW,305,10.0,17.0,70,0.00,,,-99.99,,2013-04-09 01:52:00,
2013-04-08 22:02:00,55.0,47.0,-100.00,WNW,300,11.0,16.0,75,0.00,,,-99.99,,2013-04-09 02:02:00,
2013-04-08 22:13:00,54.0,47.0,-100.00,West,260,6.0,17.0,76,0.00,,,-99.99,,2013-04-09 02:13:00,
2013-04-08 22:22:00,54.0,47.0,-100.00,WNW,290,7.0,10.0,78,0.00,,,-99.99,,2013-04-09 02:22:00,
2013-04-08 22:33:00,53.0,47.0,-100.00,WNW,295,6.0,9.0,80,0.00,,,-99.99,,2013-04-09 02:33:00,
2013-04-08 22:43:00,53.0,47.0,-100.00,WNW,285,5.0,9.0,81,0.00,,,-99.99,,2013-04-09 02:43:00,
2013-04-08 22:52:00,52.0,47.0,-100.00,West,280,3.0,9.0,81,0.00,,,-99.99,,2013-04-09 02:52:00,
2013-04-08 23:02:00,52.0,47.0,-100.00,WNW,300,5.0,10.0,82,0.00,,,-99.99,,2013-04-09 03:02:00,
2013-04-08 23:12:00,51.0,46.0,-100.00,WNW,295,4.0,6.0,83,0.00,,,-99.99,,2013-04-09 03:12:00,
2013-04-08 23:22:00,51.0,46.0,-100.00,WNW,295,4.0,6.0,83,0.00,,,-99.99,,2013-04-09 03:22:00,
2013-04-08 23:33:00,51.0,46.0,-100.00,WNW,295,4.0,6.0,83,0.00,,,-99.99,,2013-04-09 03:33:00,
2013-04-08 23:43:00,50.0,46.0,-100.00,NW,315,6.0,7.0,86,0.00,,,-99.99,,2013-04-09 03:43:00,
2013-04-08 23:52:00,50.0,46.0,-100.00,NW,305,5.0,7.0,86,0.00,,,-99.99,,2013-04-09 03:52:00,